Change the Weather History Date:

Tuesday, September 18, 2012

  Actual Average Record
Temperature  
Mean Temperature 64 °F -  
Max Temperature 80 °F 63 °F 80 °F (1999)
Min Temperature 48 °F 43 °F 42 °F (2007)
Degree Days  
Heating Degree Days 1    
Growing Degree Days 14 (Base 50)    
Moisture  
Dew Point 51 °F    
Average Humidity 67    
Maximum Humidity 100    
Minimum Humidity 32    
Precipitation  
Precipitation 0.00 in 0.17 in - ()
Sea Level Pressure  
Sea Level Pressure 30.04 in    
Wind  
Wind Speed 2 mph ()    
Max Wind Speed 8 mph    
Max Gust Speed -    
Visibility 11.5 miles    
Events      
Averages and records for this station are not official NWS values.
T = Trace of Precipitation, MM = Missing Value Source: Averaged Metar Reports

Daily Weather History Graph

Daily Weather History Graph

Search for Another Location

Airport or City:

Trip Planner

Search our weather history database for the weather conditions in past years. The results will help you decide how hot, cold, wet, or windy it might be!

Date:

Astronomy

Sep. 18, 2012 Rise Set
Actual Time 6:51 AM PDT 7:14 PM PDT
Civil Twilight 6:19 AM PDT 7:46 PM PDT
Nautical Twilight 5:41 AM PDT 8:23 PM PDT
Astronomical Twilight 5:02 AM PDT 9:02 PM PDT
Moon 10:19 AM PDT (9/18) 8:17 PM PDT (9/18)
Length of Visible Light 13h 26m
Length of Day
12h 23m
Waxing Crescent, 10% of the Moon is Illuminated
Sep 18
Waxing Crescent
Sep 22
First Quarter
Sep 29
Full
Oct 8
Last Quarter
Oct 15
New

Hourly Weather History & Observations

Time (PDT) Temp. Dew Point Humidity Pressure Visibility Wind Dir Wind Speed Gust Speed Precip Events Conditions
12:00 AM 55.4 °F 51.8 °F 88% 30.03 in 10.0 mi NNW 2.3 mph - N/A   Clear
1:00 AM 55.4 °F 51.8 °F 88% 30.03 in 10.0 mi Calm Calm - N/A   Clear
2:00 AM 55.4 °F 50.0 °F 82% 30.04 in 10.0 mi Calm Calm - N/A   Clear
3:00 AM 53.6 °F 50.0 °F 88% 30.04 in 10.0 mi Calm Calm - N/A   Clear
4:00 AM 53.6 °F 50.0 °F 88% 30.03 in 10.0 mi Calm Calm - N/A   Clear
5:00 AM 52 °F 50 °F 90% 30.03 in 10 mi North 3.5 mph - -   Clear
5:00 AM 51.8 °F 50.0 °F 94% 30.03 in 10.0 mi North 3.5 mph - N/A   Clear
6:00 AM 51.8 °F 48.2 °F 88% 30.04 in 25.0 mi NW 2.3 mph - N/A   Partly Cloudy
7:00 AM 50.0 °F 50.0 °F 100% 30.04 in 30.0 mi Calm Calm - N/A   Partly Cloudy
8:00 AM 51.8 °F 50.0 °F 94% 30.05 in 30.0 mi Calm Calm - N/A   Partly Cloudy
9:00 AM 59.0 °F 50.0 °F 72% 30.06 in 30.0 mi North 2.3 mph - N/A   Partly Cloudy
10:00 AM 64.4 °F 50.0 °F 59% 30.06 in 30.0 mi SE 2.3 mph - N/A   Partly Cloudy
11:00 AM 69 °F 50 °F 41% 30.06 in - Calm Calm - -   Scattered Clouds
11:00 AM 69.8 °F 50.0 °F 49% 30.06 in 30.0 mi Calm Calm - N/A   Partly Cloudy
12:00 PM 73.4 °F 50.0 °F 44% 30.06 in 30.0 mi WSW 2.3 mph - N/A   Partly Cloudy
1:00 PM 77.0 °F 51.8 °F 41% 30.05 in 30.0 mi SSW 3.5 mph - N/A   Partly Cloudy
2:00 PM 77.0 °F 51.8 °F 41% 30.04 in 30.0 mi SW 5.8 mph - N/A   Partly Cloudy
3:00 PM 78.8 °F 53.6 °F 42% 30.03 in 30.0 mi SSW 5.8 mph - N/A   Partly Cloudy
4:00 PM 78.8 °F 55.4 °F 44% 30.02 in 30.0 mi SW 8.1 mph - N/A   Clear
5:00 PM 78 °F 53 °F 32% 30.02 in - SW 6.9 mph - -  
5:00 PM 78.8 °F 53.6 °F 42% 30.02 in 30.0 mi SW 6.9 mph - N/A   Clear
6:00 PM 77.0 °F 53.6 °F 44% 30.02 in 30.0 mi SSW 6.9 mph - N/A   Clear
7:00 PM 69.8 °F 53.6 °F 56% 30.02 in 30.0 mi SSW 6.9 mph - N/A   Clear
8:00 PM 64.4 °F 53.6 °F 68% 30.04 in 30.0 mi SSW 4.6 mph - N/A   Clear
9:00 PM 60.8 °F 50.0 °F 68% 30.05 in 15.0 mi Calm Calm - N/A   Clear
10:00 PM 59.0 °F 50.0 °F 72% 30.06 in 15.0 mi Calm Calm - N/A   Clear
11:00 PM 57 °F 51 °F 73% 30.07 in - Calm Calm - -  
11:00 PM 57.2 °F 50.0 °F 77% 30.07 in 15.0 mi NNW 2.3 mph - N/A   Clear